Погода в Шибене

Украина / Хмельницкая область     49°44′59″N   26°17′05″E
темп.,
°C
ветер,
м/с
пор.,
м/с
влажн.,
%
обл.,
%
осадки,
мм/ч
давл.,
гПа
погр.,
м
5 августа, чт
чт500:00+15в118883 0.1 101511
03:00+16вюв3484100 0.1 101468
06:00+15ю2391100 0.0 101331
09:00+20ююв2374100 0.0 1012229
12:00+24ю345673 0.2 1011992
15:00+28ююв554294 0.2 10081994
18:00+26вюв475495 0.0 1005921
21:00+20ю91693100 10.4 10051020
6 августа, пт
пт600:00+19ююв61295100 4.9 1003408
03:00+17ю4119699 5.4 1002306
06:00+16ю51194100 0.0 1002299
09:00+19зюз6117814 0.0 1002768
12:00+23з576180 0.0 10031425
15:00+21з577084 1.1 1004994
18:00+19зсз588298 1.7 1005602
21:00+15з4109221 1.7 1007381
7 августа, сб
сб700:00+14з5109647 0.0 1008431
03:00+12зсз410965 0.0 1009324
06:00+11зюз33950 0.0 101150
09:00+16з35770 0.0 1011432
12:00+21зсз455033 0.0 10121332
15:00+24зсз464773 0.0 10122047
18:00+23з34590 0.0 1012677
21:00+18ююз227527 0.0 101313
8 августа, вс
вс800:00+17ююз22785 0.0 101517
03:00+15ю34819 0.0 101559
06:00+15ю46825 0.0 101582
09:00+21ю59662 0.0 1015341
12:00+26ю78505 0.0 1015988
15:00+28ю67425 0.0 10151213
18:00+27ююв58505 0.0 1014790
21:00+21ююв4107113 0.0 1015178
9 августа, пн
пн900:00+20ююв51368100 0.0 1015255
03:00+19ююв514695 0.0 1015252
06:00+17зюз497996 0.1 1017182
09:00+20юв2578100 0.3 1016131
12:00+22зсз126996 0.2 1017252
15:00+27ссз535881 0.3 10171430
18:00+22сз45765 1.2 1018609
21:00+18ссз59865 1.3 1020292